Location: *
(40.7873°S, 98.7174°E)
Time: 09:36:09
(UTC+00:00)

Cosmos 1741 Rocket - Pass Details

Date: 24 May 2022
Orbit: 761 x 782 km, 74.0° (Epoch: 04 July)

Event Time Altitude Azimuth Distance (km) Brightness Sun altitude
Rises 10:36:47 0° 200° (SSW) 3,297 7.3 -5.4°
Reaches altitude 10° 10:39:12 10° 199° (SSW) 2,359 6.5 -5.8°
Maximum altitude 10:44:35 89° 117° (ESE) 788 4.1 -6.7°
Drops below altitude 10° 10:49:52 10° 18° (NNE) 2,314 6.5 -7.7°
Sets 10:52:13 0° 18° (NNE) 3,229 7.3 -8.1°
